Regional Weather Roundup
Issued by NWS

Home | Current Version | Previous Version | Text Only | Print | Product List | Glossary Off
Versions: 1 2 3 4 5 6 7 8 9 10 11 12 13 14 15 16 17 18 19 20 21 22 23 24 25 26 27 28 29 30 31 32 33 34 35 36 37 38 39 40 41 42 43 44 45 46 47 48 49 50

000
ASUS43 KDTX 041210
RWRMI
MICHIGAN HOURLY REGIONAL WEATHER ROUNDUP
NATIONAL WEATHER SERVICE DETROIT/PONTIAC MI
700 AM EST SUN DEC 04 2016

NOTE: "FAIR" INDICATES FEW OR NO CLOUDS BELOW 12,000 FEET WITH NO
SIGNIFICANT WEATHER AND/OR OBSTRUCTION TO VISIBILITY.

MIZ047>049-052>055-059>063-066>070-074>076-081>083-041300-
SOUTHEAST LOWER MICHIGAN

CITY           SKY/WX    TMP DP  RH WIND       PRES   REMARKS
ADRIAN         PTCLDY    31  28  89 CALM      30.23S
6HR MIN TEMP:  31; 6HR MAX TEMP:  34;

ALMA           CLOUDY    33  31  90 E5        30.21F WCI  29
ANN ARBOR      CLOUDY    33  28  81 SE3       30.21F
BAD AXE        CLOUDY    33  31  92 CALM      30.22F
6HR MIN TEMP:  33; 6HR MAX TEMP:  35;

CARO           CLOUDY    32  31  97 CALM      30.22S
DETROIT CITY   CLOUDY    36  27  69 CALM      30.24S
6HR MIN TEMP:  35; 6HR MAX TEMP:  37;

DETROIT        CLOUDY    35  28  75 S3        30.24S
6HR MIN TEMP:  35; 6HR MAX TEMP:  36;

FLINT          CLOUDY    33  30  88 S3        30.22F
6HR MIN TEMP:  32; 6HR MAX TEMP:  35;

GROSSE ILE     CLOUDY    36  26  69 SW3       30.23S
6HR MIN TEMP:  36; 6HR MAX TEMP:  37;

HILLSDALE      PTCLDY    30  27  86 CALM      30.19S
HOWELL         CLOUDY    33  29  84 CALM      30.20F

CITY           SKY/WX    TMP DP  RH WIND       PRES   REMARKS
JACKSON        CLOUDY    32  25  75 CALM      30.20F
6HR MIN TEMP:  32; 6HR MAX TEMP:  34;

LAMBERTVILLE   CLOUDY    33  28  83 CALM      30.23S
6HR MIN TEMP:  33; 6HR MAX TEMP:  36;

LANSING        CLOUDY    33  26  75 S3        30.21F
6HR MIN TEMP:  33; 6HR MAX TEMP:  35;

LAPEER         NOT AVBL
MASON          CLOUDY    32  28  86 CALM      30.20F
MONROE         MOCLDY    33  28  80 S8        30.22F WCI  26
6HR MIN TEMP:  33; 6HR MAX TEMP:  37;

MT. CLEMENS    CLOUDY    36  29  76 W3        30.22S
6HR MIN TEMP:  35; 6HR MAX TEMP:  37;

PONTIAC        CLOUDY    33  29  85 CALM      30.20F
6HR MIN TEMP:  33; 6HR MAX TEMP:  35;

PORT HOPE        N/A     35  33  92 SW5       30.21F WCI  31
6HR MIN TEMP:  35; 6HR MAX TEMP:  36;

PORT HURON     CLOUDY    34  32  93 CALM      30.23F
TRI CITIES     CLOUDY    34  31  88 CALM      30.22F
6HR MIN TEMP:  34; 6HR MAX TEMP:  35;

MIDLAND        CLOUDY    33  30  90 CALM      30.20F
6HR MIN TEMP:  33; 6HR MAX TEMP:  35;

TROY           CLOUDY    37  28  71 CALM      30.25S
SAGINAW HB     CLOUDY    34  30  86 CALM      30.22S
$$
MIZ043>046-050>051-056>058-064>065-071>073-077>080-041300-
SOUTHWEST LOWER MICHIGAN

CITY           SKY/WX    TMP DP  RH WIND       PRES   REMARKS
BATTLE CREEK   MOCLDY    32  28  85 CALM      30.20F
6HR MIN TEMP:  32; 6HR MAX TEMP:  34;

BENTON HARBOR  CLOUDY    33  25  72 SE6       30.19F WCI  28
6HR MIN TEMP:  33; 6HR MAX TEMP:  35;

BIG RAPIDS     CLOUDY    33  28  82 CALM      30.17F
6HR MIN TEMP:  33; 6HR MAX TEMP:  33;

COLDWATER      CLOUDY    32  28  83 SE3       30.19S
6HR MIN TEMP:  30; 6HR MAX TEMP:  33;

FREMONT        CLOUDY    33  27  80 SE3       30.18S
HOLLAND        CLOUDY    34  27  75 SE9       30.19F WCI  27
6HR MIN TEMP:  34; 6HR MAX TEMP:  35;

GRAND RAPIDS   CLOUDY    33  27  78 SE6       30.20F WCI  28
6HR MIN TEMP:  33; 6HR MAX TEMP:  34;

IONIA          CLOUDY    33  29  86 SE3       30.19S
6HR MIN TEMP:  32; 6HR MAX TEMP:  34;

KALAMAZOO      CLOUDY    32  27  81 SE3       30.20F HAZE
6HR MIN TEMP:  32; 6HR MAX TEMP:  35;

LUDINGTON      CLOUDY    33  29  86 SE5       30.17F WCI  28
6HR MIN TEMP:  32; 6HR MAX TEMP:  33;

MARSHALL       CLOUDY    30  28  94 CALM      30.20S
6HR MIN TEMP:  30; 6HR MAX TEMP:  33;

MOUNT PLEASANT CLOUDY    32  29  88 CALM      30.20F
6HR MIN TEMP:  32; 6HR MAX TEMP:  36;

MUSKEGON       CLOUDY    35  28  75 SE8       30.18F WCI  29
6HR MIN TEMP:  35; 6HR MAX TEMP:  35;

SOUTH HAVEN    CLOUDY    35  28  75 CALM      30.19F
$$
MIZ016>042-041300-
NORTHERN LOWER MICHIGAN

CITY           SKY/WX    TMP DP  RH WIND       PRES   REMARKS
ALPENA         CLOUDY    34  31  88 CALM      30.21F
6HR MIN TEMP:  33; 6HR MAX TEMP:  35;

BEAVER ISLAND  CLOUDY    35  32  89 SE3       30.17S
6HR MIN TEMP:  33; 6HR MAX TEMP:  36;

BELLAIRE       CLOUDY    33  32  96 CALM      30.20F
6HR MIN TEMP:  33; 6HR MAX TEMP:  34;

CADILLAC       CLOUDY    31  26  81 SE5       30.16S WCI  26
CHARLEVOIX     CLOUDY    33  33 100 SE5       30.21F WCI  29
FRANKFORT      CLOUDY    32  30  90 SE3       30.18F
GAYLORD        CLOUDY    32  29  88 S5        30.17F WCI  27
6HR MIN TEMP:  32; 6HR MAX TEMP:  33;

GRAYLING       MIX PCPN  32  32  99 CALM      30.19S
HARBOR SPRINGS CLOUDY    33  32  95 S5        30.19F WCI  28
HOUGHTON LAKE  CLOUDY    31  27  85 CALM      30.19F
6HR MIN TEMP:  31; 6HR MAX TEMP:  33; 6HR PCP:  0.01;

MANISTEE       CLOUDY    32  28  85 E5        30.17F WCI  27
OSCODA         CLOUDY    34  32  93 MISG      30.21S
6HR MIN TEMP:  34; 6HR MAX TEMP:  35;

PELLSTON       CLOUDY    34  31  88 S3        30.19F
6HR MIN TEMP:  34; 6HR MAX TEMP:  35; 6HR PCP: TRACE;

ROGERS CITY    CLOUDY    34  32  92 S3        30.22S
TRAVERSE CITY  CLOUDY    34  29  82 SE3       30.19F
6HR MIN TEMP:  34; 6HR MAX TEMP:  35;

$$
MIZ007>008-015-041300-
EASTERN UPPER MICHIGAN

CITY           SKY/WX    TMP DP  RH WIND       PRES   REMARKS
KINROSS        FLURRIES  31  30  96 E10       30.19S WCI  22
6HR MIN TEMP:  30; 6HR MAX TEMP:  31; 6HR PCP: TRACE;

MACKINAC ISLAN CLOUDY    35  32  88 S5        30.19S WCI  31
6HR MIN TEMP:  34; 6HR MAX TEMP:  36;

NEWBERRY       CLOUDY    31  31  98 E5        30.16S WCI  26
6HR MIN TEMP:  31; 6HR MAX TEMP:  32;

S. S. MARIE    CLOUDY    31  25  78 E7        30.20R WCI  24
6HR MIN TEMP:  31; 6HR MAX TEMP:  32;

MUNISING         N/A     32  29  88 S6        30.14F WCI  26
6HR MIN TEMP:  32; 6HR MAX TEMP:  33;

$$
MIZ004>006-011>014-085-041300-
CENTRAL UPPER MICHIGAN

CITY           SKY/WX    TMP DP  RH WIND       PRES   REMARKS
MANISTIQUE     CLOUDY    32  30  93 CALM      30.15S
6HR MIN TEMP:  31; 6HR MAX TEMP:  32; 6HR PCP:  0.01;

ESCANABA       CLOUDY    30  24  78 W3        30.16F
6HR MIN TEMP:  30; 6HR MAX TEMP:  32;

MENOMINEE      CLOUDY    30  23  74 CALM      30.16F
6HR MIN TEMP:  30; 6HR MAX TEMP:  31;

SAWYER-GWINN   CLOUDY    28  23  80 S10       30.11F WCI  19
$$
MIZ001>003-009>011-084-041300-
WESTERN UPPER MICHIGAN

CITY           SKY/WX    TMP DP  RH WIND       PRES   REMARKS
IRON MOUNTAIN  CLOUDY    28  20  71 S5        30.10F WCI  23
6HR MIN TEMP:  28; 6HR MAX TEMP:  30;

HOUGHTON       CLOUDY    30  23  75 SW5       30.07F WCI  25
6HR MIN TEMP:  30; 6HR MAX TEMP:  31;

COPPER HARBOR    N/A     35  28  75 SW5       30.10F WCI  31
6HR MIN TEMP:  32; 6HR MAX TEMP:  35;

IRONWOOD       CLOUDY    27  22  81 S5        30.05F WCI  22
6HR MIN TEMP:  25; 6HR MAX TEMP:  27;

$$

ABBREVIATIONS USED IN REMARKS
   TC - TEMPERATURE IN CELSIUS
  WCI - WIND CHILL INDEX
   HX - HEAT INDEX
  VSB - VISIBILITY




USA.gov is the U.S. government's official web portal to all federal, state and local government web resources and services.